Location: Unspecified
(50.1700°N, 6.8600°E)
Time: 20:09:15
(UTC+00:00)

CZ-4C R/B - Pass Details

Date: 24 January 2019
Orbit: 671 x 1331 km, 63.4° (Epoch: 20 February)

Event Time Altitude Azimuth Distance (km) Brightness Sun altitude
Exits shadow 06:16:15 10° 311° (NW) 2,666 4.2 -9.8°
Reaches altitude 10° 06:16:20 10° 311° (NW) 2,644 4.2 -9.8°
Maximum altitude 06:21:31 26° 7° (N) 1,907 3.9 -9.0°
Drops below altitude 10° 06:27:24 10° 62° (ENE) 3,041 5.7 -8.1°
Sets 06:30:53 0° 74° (ENE) 4,107 6.7 -7.6°
